This is the latest recevied weather packets stored in our database for station/object KD9JB-1. If no packets are shown the sender has not sent any weather packets the latest 1 day(s).
| Time | Temp. | Humidity | Pressure | Rain* | Wind** | Luminosity | Snow |
|---|---|---|---|---|---|---|---|
| 1778012195 | 16.67° C | 93% | 1007 hPa | 0 mm | 0.45 m/s, 210° | - | - |
| 1778011895 | 16.67° C | 93% | 1007.1 hPa | 0 mm | 0.45 m/s, 1° | - | - |
| 1778011595 | 16.67° C | 92% | 1007.2 hPa | 0 mm | 0.45 m/s, 223° | - | - |
| 1778011295 | 16.67° C | 92% | 1007.2 hPa | 0.25 mm | 0.45 m/s, 46° | - | - |
| 1778010995 | 16.67° C | 92% | 1007.2 hPa | 0.51 mm | 0.45 m/s, 223° | - | - |
| 1778010695 | 16.67° C | 92% | 1007.2 hPa | 0.76 mm | 0.45 m/s, 1° | - | - |
| 1778010395 | 16.67° C | 92% | 1007.3 hPa | 1.27 mm | 0.45 m/s, 46° | - | - |
| 1778010095 | 16.67° C | 92% | 1007.3 hPa | 1.52 mm | 0.45 m/s, 46° | - | - |
| 1778009795 | 16.67° C | 93% | 1007.4 hPa | 1.78 mm | 0.45 m/s, 193° | - | - |
| 1778009495 | 16.67° C | 92% | 1007.4 hPa | 1.78 mm | 0.45 m/s, 1° | - | - |
| 1778009195 | 16.67° C | 92% | 1007.5 hPa | 1.78 mm | 0.89 m/s, 1° | - | - |
| 1778008895 | 16.67° C | 93% | 1007.5 hPa | 1.78 mm | 0.89 m/s, 314° | - | - |
| 1778008595 | 16.67° C | 93% | 1007.5 hPa | 1.78 mm | 0.89 m/s, 241° | - | - |
| 1778008295 | 16.67° C | 93% | 1007.6 hPa | 1.78 mm | 0.89 m/s, 145° | - | - |
| 1778007995 | 16.67° C | 92% | 1007.7 hPa | 2.03 mm | 0.89 m/s, 89° | - | - |
| 1778007695 | 16.67° C | 92% | 1007.8 hPa | 1.78 mm | 0.45 m/s, 135° | - | - |
| 1778007395 | 16.67° C | 92% | 1007.9 hPa | 1.52 mm | 0.45 m/s, 269° | - | - |
| 1778007095 | 16.67° C | 92% | 1007.9 hPa | 1.27 mm | 0.45 m/s, 140° | - | - |
| 1778006795 | 16.67° C | 92% | 1008 hPa | 0.76 mm | 0.45 m/s, 28° | - | - |
| 1778006495 | 16.67° C | 92% | 1008 hPa | 0.51 mm | 0.89 m/s, 240° | - | - |
| 1778006195 | 16.67° C | 92% | 1007.9 hPa | 0.25 mm | 0.89 m/s, 89° | - | - |
| 1778005895 | 16.67° C | 92% | 1007.9 hPa | 0.51 mm | 0.89 m/s, 283° | - | - |
| 1778005595 | 16.67° C | 92% | 1007.8 hPa | 0.51 mm | 0.45 m/s, 220° | - | - |
| 1778005295 | 16.67° C | 92% | 1007.8 hPa | 0.76 mm | 0.89 m/s, 250° | - | - |
| 1778004995 | 16.11° C | 92% | 1007.8 hPa | 0.76 mm | 0.89 m/s, 241° | - | - |
* Rain latest hour (hover to see other rain measurements)
** Current wind speed in m/s (hover to see current wind gust speed)